Wind_Speed
29 28 26 25 24 24 23 23 23 23 26 27 27 28 29 28 28 27 26 26 27 28 28 28 29 29 29 29 28 29 30 31 31 32 35 37 41 43
31 29 27 25 24 23 22 22 22 22 24 25 26 28 29 29 29 28 27 27 28 28 28 28 28 28 27 27 27 27 26 26 29 31 33 36 38 41
31 29 27 25 24 23 22 21 21 20 21 23 25 27 28 29 29 28 28 29 28 28 27 26 26 26 25 25 25 24 24 24 24 26 29 33 36 38
32 30 28 26 24 23 21 20 20 20 20 21 24 26 27 28 28 29 29 28 28 27 26 25 24 23 23 23 22 22 22 22 22 23 25 28 31 34
35 32 30 28 25 23 21 20 19 19 19 20 23 25 26 26 27 27 26 26 25 25 25 24 22 21 21 20 21 21 22 22 22 22 23 25 27 30
37 35 32 29 26 23 21 20 19 19 19 19 21 23 24 24 25 26 25 24 24 23 24 23 22 22 21 20 20 20 20 20 21 22 23 24 27 29
40 37 34 30 27 24 21 19 18 18 18 19 20 22 23 24 24 25 25 26 24 23 22 22 20 19 19 19 18 18 18 17 17 18 19 21 22 25
42 39 35 31 27 24 21 20 19 18 19 18 19 20 22 23 23 23 24 25 24 22 20 19 18 17 16 16 15 14 13 12 12 12 13 14 16 17
44 41 36 32 28 25 22 21 20 18 18 18 19 21 22 24 24 24 24 24 23 20 18 17 17 16 14 13 13 12 11 12 12 12 13 13 14 16
46 43 38 33 29 26 24 22 21 19 18 18 19 21 22 22 22 23 23 23 22 20 18 16 15 14 13 12 12 11 11 11 11 11 12 13 14 15
46 43 39 34 30 27 25 23 22 21 20 19 20 20 21 23 23 23 23 22 20 18 17 15 14 13 12 12 11 10 10 10 10 10 10 11 13 14
44 41 38 34 31 29 27 25 23 22 20 19 19 20 21 22 22 21 21 20 18 16 15 14 13 13 11 11 10 9 8 8 8 8 9 11 13 15
45 41 37 35 32 31 29 27 25 23 21 20 19 20 21 21 21 20 19 18 16 15 14 14 13 12 11 10 9 8 7 6 7 8 9 11 13 15
44 41 36 34 33 31 29 28 27 25 22 21 20 20 20 20 21 21 19 17 16 15 15 14 13 12 10 9 8 7 7 7 8 9 10 12 14 16
44 40 36 34 33 31 30 28 27 24 22 21 20 19 20 20 20 19 17 16 16 15 15 14 13 11 10 9 9 8 9 9 10 12 13 14 15 17
44 42 39 36 34 32 29 27 26 24 21 20 19 19 19 19 19 17 17 16 16 16 15 14 12 11 11 10 10 11 11 12 14 15 16 17 19 20
45 42 39 36 33 30 28 26 25 23 21 20 19 19 18 18 18 17 18 18 17 15 14 13 12 12 11 12 13 14 15 16 18 19 20 21 22 23
44 41 38 35 31 29 27 26 24 22 21 21 20 20 19 19 19 19 19 18 17 15 14 12 12 13 14 15 16 17 19 20 21 22 24 25 26 26
43 40 37 34 31 29 27 25 24 22 22 22 21 21 20 20 20 19 19 17 16 14 13 13 14 15 16 18 19 21 22 23 24 26 27 28 29 30
42 39 35 32 29 27 26 24 23 23 23 23 22 21 21 21 20 20 18 17 15 14 14 15 16 18 19 21 22 24 25 26 27 29 30 31 32 33
38 36 33 31 29 27 25 24 24 24 24 24 22 21 21 21 21 19 18 16 15 15 16 17 19 21 22 24 25 27 28 29 30 31 32 33 33 33
35 33 31 30 28 26 25 25 25 24 24 23 22 21 21 21 20 19 17 16 16 17 19 20 22 24 26 27 28 28 29 30 31 32 32 33 33 33
32 31 29 28 26 26 26 25 25 24 23 22 21 21 20 20 19 18 17 17 18 19 21 23 25 26 27 28 29 29 29 29 30 30 31 31 31 31
Wind_Direction
287 294 300 304 307 307 305 299 286 273 263 256 254 254 255 257 258 261 263 266 269 270 270 267 264 263 262 262 262 261 260 260 258 255 253 248 244 240
282 287 294 299 303 305 305 301 291 277 265 258 253 253 254 255 258 260 263 266 269 269 268 267 264 262 261 262 265 262 262 264 260 255 250 246 243 240
276 281 287 294 299 302 304 302 294 281 269 260 253 252 253 254 257 260 263 266 268 268 267 264 262 260 260 259 261 261 262 264 264 259 254 247 241 237
270 275 281 288 294 299 301 301 295 284 273 262 255 252 253 255 258 260 263 265 266 266 264 263 260 259 258 259 260 259 261 263 265 263 258 252 248 242
264 269 275 282 287 294 298 299 294 285 275 266 258 254 253 255 258 260 262 263 264 264 261 260 257 257 259 259 257 259 259 259 260 261 260 255 251 248
260 264 269 275 280 287 292 295 292 284 276 267 261 256 255 256 258 259 261 260 261 263 260 260 261 259 258 256 257 258 258 258 260 260 259 258 256 255
256 259 263 268 274 280 286 290 289 283 275 268 261 256 256 258 259 258 258 257 260 261 260 258 260 257 256 255 255 255 256 256 257 258 257 257 258 258
253 254 257 262 268 273 280 284 286 282 274 268 263 259 258 258 257 255 253 252 255 256 257 257 256 253 249 247 248 247 246 247 248 252 254 257 259 261
249 249 251 256 262 269 276 281 282 282 276 269 263 257 257 255 250 248 249 253 253 253 251 249 246 242 239 239 237 238 242 246 249 253 257 262 265 268
245 244 246 251 257 264 271 276 279 280 276 269 264 258 256 253 251 251 250 252 251 248 244 238 233 228 227 231 234 236 239 243 249 255 261 266 270 273
240 238 242 247 252 260 267 272 275 275 271 265 261 258 254 253 254 253 248 245 240 236 228 219 216 220 224 226 226 230 235 242 250 258 266 272 277 280
233 234 238 243 250 258 263 267 269 270 267 263 259 257 253 251 251 248 243 238 228 222 215 211 213 217 219 220 222 227 234 243 254 266 277 285 289 291
231 234 237 242 247 253 257 261 263 264 263 258 255 254 252 247 242 236 230 223 212 208 207 207 209 210 212 214 218 223 232 248 266 278 286 291 295 297
226 229 233 238 243 247 252 256 258 259 257 254 252 249 245 240 234 228 219 211 207 205 203 201 200 200 204 209 215 224 236 253 267 279 289 295 299 304
220 224 227 232 237 242 246 250 252 253 251 248 246 241 237 233 228 219 210 205 202 201 198 194 194 197 204 213 224 235 249 262 270 277 284 291 298 304
214 216 220 226 231 237 241 243 246 246 244 241 237 233 229 222 214 206 201 199 196 195 195 195 198 205 214 226 239 251 261 270 277 281 286 292 298 303
206 210 215 221 226 231 234 237 238 238 235 230 226 222 214 203 198 196 196 193 192 193 197 203 211 221 233 245 255 263 270 276 280 284 288 292 297 300
198 204 210 215 219 223 227 229 231 228 223 218 214 209 201 196 195 194 192 192 194 199 206 216 228 240 252 261 267 272 276 279 282 285 287 290 293 296
193 198 204 209 213 216 219 221 221 216 210 206 201 197 195 194 193 193 194 196 201 209 220 234 247 257 266 272 276 278 280 281 283 285 286 288 290 293
190 194 199 205 208 210 211 211 209 205 200 195 193 193 193 193 194 196 200 205 213 225 238 250 259 267 273 278 281 282 283 284 285 285 286 287 289 292
188 192 196 199 200 201 201 200 198 195 191 189 190 192 194 196 199 203 209 217 227 239 251 261 268 275 280 283 285 285 285 285 286 286 286 288 290 293
186 190 192 193 192 191 190 189 188 187 187 189 192 195 198 201 206 212 220 230 241 251 260 269 276 281 285 287 288 287 286 286 287 286 286 288 291 293
181 182 182 182 183 183 183 183 183 185 188 191 195 199 203 208 214 222 231 242 251 260 267 274 281 285 287 289 290 290 289 287 286 284 284 285 288 291
Height
5771 5768 5765 5762 5759 5756 5754 5752 5752 5752 5753 5755 5758 5760 5763 5766 5768 5770 5772 5773 5775 5776 5777 5778 5779 5781 5783 5785 5786 5788 5789 5791 5792 5794 5797 5799 5803 5807
5764 5762 5759 5756 5754 5751 5748 5746 5745 5746 5746 5749 5751 5753 5755 5758 5760 5762 5764 5766 5767 5768 5769 5770 5772 5773 5775 5777 5779 5780 5782 5783 5784 5786 5788 5791 5794 5798
5756 5755 5753 5750 5748 5745 5743 5741 5739 5739 5739 5741 5743 5745 5748 5750 5752 5755 5756 5758 5759 5761 5762 5763 5764 5766 5768 5770 5772 5773 5774 5776 5777 5779 5780 5783 5785 5789
5748 5747 5746 5744 5742 5739 5737 5735 5734 5733 5733 5734 5736 5738 5740 5743 5745 5747 5749 5750 5752 5753 5755 5756 5758 5760 5761 5763 5765 5766 5768 5770 5771 5772 5774 5776 5778 5781
5738 5739 5738 5737 5735 5733 5731 5729 5728 5727 5727 5728 5729 5731 5733 5735 5737 5739 5741 5743 5745 5746 5748 5750 5752 5754 5755 5757 5758 5760 5761 5763 5765 5766 5767 5769 5771 5774
5728 5729 5730 5729 5728 5726 5725 5723 5722 5722 5722 5722 5723 5725 5727 5729 5730 5732 5734 5736 5738 5740 5742 5744 5746 5748 5749 5751 5752 5753 5755 5757 5758 5760 5761 5763 5765 5767
5717 5719 5721 5721 5720 5719 5718 5717 5716 5716 5716 5716 5717 5719 5721 5723 5724 5726 5728 5730 5732 5734 5736 5738 5740 5742 5743 5745 5746 5747 5749 5750 5752 5753 5755 5757 5759 5761
5705 5708 5710 5712 5712 5712 5711 5710 5710 5710 5710 5711 5712 5713 5715 5717 5718 5720 5722 5724 5726 5728 5730 5733 5735 5736 5738 5739 5741 5743 5744 5746 5747 5749 5751 5752 5754 5755
5692 5696 5700 5702 5703 5704 5704 5704 5704 5704 5705 5706 5707 5708 5710 5711 5713 5714 5717 5718 5720 5723 5725 5727 5729 5732 5734 5735 5737 5739 5741 5742 5744 5745 5746 5748 5749 5750
5679 5684 5688 5692 5694 5696 5696 5697 5697 5698 5698 5699 5701 5702 5704 5706 5708 5710 5711 5713 5715 5717 5720 5722 5725 5727 5730 5732 5734 5736 5737 5738 5740 5741 5742 5743 5744 5744
5665 5672 5677 5681 5684 5687 5689 5690 5691 5692 5692 5694 5695 5697 5699 5701 5703 5705 5706 5708 5710 5712 5715 5718 5721 5724 5727 5729 5730 5732 5733 5734 5735 5736 5737 5738 5738 5739
5652 5659 5665 5670 5674 5678 5680 5682 5684 5685 5687 5688 5690 5692 5693 5695 5698 5700 5702 5704 5706 5709 5712 5716 5719 5721 5723 5725 5727 5728 5729 5731 5731 5732 5732 5733 5733 5733
5639 5646 5653 5659 5664 5669 5672 5675 5677 5679 5681 5682 5684 5686 5689 5691 5693 5695 5698 5700 5703 5706 5710 5713 5716 5718 5720 5722 5724 5725 5726 5727 5727 5728 5728 5728 5728 5727
5626 5635 5642 5649 5655 5659 5663 5667 5670 5672 5675 5677 5679 5681 5684 5686 5688 5691 5693 5696 5700 5704 5707 5710 5712 5715 5717 5719 5721 5722 5723 5724 5724 5724 5724 5723 5722 5721
5614 5623 5632 5639 5646 5651 5655 5659 5663 5666 5669 5671 5674 5677 5679 5681 5684 5687 5690 5694 5697 5701 5704 5707 5709 5712 5715 5717 5718 5719 5720 5720 5721 5720 5720 5719 5717 5715
5603 5612 5621 5630 5637 5643 5648 5652 5656 5659 5663 5666 5669 5671 5674 5677 5680 5684 5688 5691 5695 5698 5701 5704 5706 5709 5711 5713 5715 5715 5716 5716 5716 5715 5714 5712 5711 5709
5593 5603 5613 5622 5629 5635 5641 5645 5650 5653 5657 5661 5664 5667 5670 5674 5678 5682 5686 5689 5693 5696 5699 5702 5704 5706 5708 5709 5710 5710 5710 5710 5709 5708 5707 5705 5704 5702
5585 5595 5606 5615 5622 5629 5634 5640 5644 5648 5652 5657 5660 5664 5668 5672 5676 5680 5684 5687 5691 5694 5697 5699 5701 5703 5704 5704 5705 5705 5704 5704 5703 5701 5700 5698 5696 5694
5579 5589 5599 5609 5616 5623 5629 5634 5639 5644 5648 5653 5657 5661 5665 5670 5674 5678 5682 5685 5688 5691 5693 5695 5697 5698 5699 5699 5699 5699 5698 5697 5696 5694 5692 5690 5688 5686
5574 5585 5595 5604 5611 5618 5624 5630 5635 5640 5645 5650 5654 5659 5664 5668 5672 5676 5679 5682 5685 5687 5689 5691 5692 5693 5693 5693 5693 5692 5691 5689 5688 5686 5684 5682 5679 5677
5573 5583 5592 5600 5608 5614 5621 5626 5632 5637 5642 5647 5653 5657 5661 5666 5669 5673 5676 5679 5681 5683 5685 5686 5687 5687 5686 5686 5686 5684 5682 5681 5679 5677 5675 5673 5670 5668
5573 5582 5590 5598 5605 5612 5618 5624 5630 5635 5640 5646 5651 5655 5659 5663 5666 5669 5672 5675 5677 5679 5680 5680 5680 5680 5679 5678 5677 5676 5674 5672 5669 5667 5665 5663 5661 5659
5574 5583 5590 5598 5605 5611 5617 5623 5629 5634 5639 5644 5649 5652 5656 5660 5663 5666 5668 5670 5672 5673 5674 5674 5673 5672 5671 5670 5668 5666 5664 5663 5661 5659 5657 5655 5653 5650